Location: Newark
(55.7083°N, 13.1992°E)
Time: 01:57:02
(UTC+00:00)

N. Korean satellite - Pass Details

Date: 24 January 2020
Orbit: 456 x 505 km, 97.2° (Epoch: 26 February)

Event Time Altitude Azimuth Distance (km) Brightness Sun altitude
Rises 06:05:22 0° 7° (N) 2,526 10.1 -9.6°
Reaches altitude 10° 06:07:36 10° 355° (N) 1,652 9.0 -9.3°
Maximum altitude 06:10:40 28° 295° (WNW) 931 7.4 -8.9°
Drops below altitude 10° 06:13:45 10° 236° (SW) 1,665 9.0 -8.5°
Sets 06:16:00 0° 224° (SW) 2,550 10.0 -8.2°
